Showing default

COSMOS 2576, 59773

Orbit data source: Space-Track

COSMOS 2576, 59773 is a payload satellite owned by TS VS RF (CIS) in SSO that was launched on Thu, 16 May 2024 UTC via a SOYUZ-2-1B launch vehicle from the Plesetsk Missile And Space Complex (PKMTR). Payload-class satellites include a variety of spacecraft equipped with specific instruments for various scientific and technological missions. These include communications satellites like Starlink; space stations such as the ISS; scientific satellites like the Hubble; Earth observation satellites from companies like Planet Labs, Umbra, and HawkEye 360; GPS; miniature CubeSats for education and research; and military/defense satellites.

Loading next visibility...
Identifier
59773, 2024-092A
Orbit
SSO
Last TLE update
8 hours ago
Origin
Manufacturer
Lavochkin
Mission
Operational spacecraft
Bus & Motor
KARAT-200, Unknown motor
Mass
~500 kg wet, ~500 kg dry
Launch date (UTC)
2024-05-16 (1 year ago)
Launch vehicle
SOYUZ-2-1B
Launch site
Plesetsk Missile And Space Complex (PKMTR)
Object type
Payload
Rocket body
Debris
Shape & HBR
Unknown
Radar Cross Section
Large (>1 m²)

Expand to show TLE details & history

TLE from 8 hours ago
0 COSMOS 2576
1 59773U 24092A   25128.94439827  .00013689  00000-0  52427-3 0  9992
2 59773  97.4084 243.1483 0004874  52.8255 307.3428 15.26647748 54769
Epoch: 2025-05-08T22:39Z
Definitive object data (Epoch: 2025-05-08T22:39:56.01Z)
Latitude
-0.00004°
Longitude
36.1573°
Altitude
486.913 km
Speed
7.623 km/s
True Right ascension
16h 12m 35s
True Declination
0° 00' 00"
Sunlit
Object was in full shadow at TLE epoch
Visualization TLE readout
Latitude
47.18659°
Longitude
-135.47046°
Altitude
492.657 km
Speed
7.623 km/s
Apparent Right ascension
03h 59m 42s
Apparent Declination
5° 45' 21"
Sunlit
Object is in daylight
Visualization observer readout
Local Sidereal Time
15:15:27
Azimuth
344.816° N
Elevation
-43.203°
Doppler factor
1
Orbital elements
Apogee altitude
486.143 km
Perigee altitude
479.455 km
Semi-major axis
6,860.936 km
Eccentricity
0.0004874
Inclination
97.4084°
RAAN
243.1483°
Arg. of periapsis
52.8255°
True anomaly
307.29838°
Mean anomaly
307.3428°
Eccentric anomaly
307.32059°
Mean motion
3.81916 °/min
BSTAR
0.00052427
Orbital period
94.26 mins
Loading maneuver chart data...
Loading SW <> Apogee altitude chart data...
Loading historical data...
Loading historical data...
Loading historical data...
Loading historical data...
Loading historical data...
Loading historical data...
Loading historical data...

COSMOS 2576 Visibility forecast

Observer location: undefined°, undefined°

Span
Click to sort rows by Start time (UTC) header in descending order
Start Az.
Max El. time (UTC)
Max El. Az.
Max El.
End time (UTC)
End Az.
6 mins2025-05-09 08:13:30.554Z203.81° SW2025-05-09 08:16:30.554Z264.661° W24.891°2025-05-09 08:19:30.554Z323.487° NNW
4 mins2025-05-09 19:42:30.554Z64.615° ENE2025-05-09 19:43:30.554Z86.722° E19.587°2025-05-09 19:46:30.554Z145.203° SSE
4 mins2025-05-09 21:15:30.554Z326.878° NNW2025-05-09 21:17:30.554Z282.615° WNW19.614°2025-05-09 21:19:30.554Z244.817° WSW
|